Content
SEND FEEDBACK

Daily
Averages
Monthly
Summary
United States of America

BRADFORD, KANSAS


Home > North America > United States > Kansas
Elevation: 1210 feet     Latitude: 38 49N     Longitude: 095 55W

WEATHER
 
SELECT A DAY
Number of Records: 187,295;   Date Range: 1/1/95 - 7/29/14
 
SHARE

PRINT THIS DATA

[ ← Previous Day ]
WEATHER ALMANAC - JANUARY 23, 2013
[ Next Day → ]
[ °C ]   °F
Weather ElementAverageHighLow
Temperature29.1 °F48.9 °F (2:53 pm)12.9 °F (5:53 am)
Dewpoint16 °F23 °F (12:53 pm)8.1 °F (5:53 am)
Humidity60.9 %81 % (5:53 am)36 % (2:53 pm)
Barometer30.28 in30.45 in (11:53 pm)30.19 in (2:53 pm)
Wind Speed6.9 mph16.1 mph (8:53 pm)
Wind Gust21.9 mph (8:53 pm)
Weather ElementAverage
Visibility10 mi
Wind DirectionESE (117 °)

Weather ElementTotal
Precipitation---
Heating Degree Days34.1 (Base 65)
Averaged from 23 records on January 23, 2013
WEATHER CONDITIONS BREAKOUT
WIND DIRECTION BREAKOUT
WEATHER BY HOUR - JANUARY 23, 2013
[ °C ]   °F
Local TimeTemperatureDewpointHumidityBarometerVisibilityWind DirectionWind SpeedGust SpeedPrecipitationEventsConditions
1:53 AM16.0 °F10.0 °F77 %30.28 in10.0 miCalmClear
2:53 AM15.1 °F9.0 °F77 %30.27 in10.0 miCalmClear
3:53 AM15.1 °F10.0 °F80 %30.26 in10.0 miESE (110°)3.5 mphClear
4:53 AM14.0 °F9.0 °F80 %30.25 in10.0 miCalmClear
5:53 AM12.9 °F8.1 °F81 %30.26 in10.0 miSSE (150°)3.5 mphClear
6:53 AM12.9 °F8.1 °F81 %30.25 in10.0 miSSE (150°)3.5 mphClear
7:53 AM14.0 °F9.0 °F80 %30.25 in10.0 miSSE (150°)4.6 mphClear
8:53 AM21.0 °F14.0 °F74 %30.25 in10.0 miSouth (170°)3.5 mphClear
9:53 AM28.0 °F19.0 °F69 %30.25 in10.0 miSW (220°)5.8 mphClear
10:53 AM35.1 °F21.9 °F59 %30.26 in10.0 miSW (220°)4.6 mphClear
11:53 AM39.9 °F21.9 °F49 %30.25 in10.0 miVariable3.5 mphClear
12:53 PM45.0 °F23.0 °F42 %30.21 in10.0 miCalmClear
1:53 PM46.9 °F21.9 °F37 %30.20 in10.0 miNorth (350°)9.2 mphClear
2:53 PM48.9 °F23.0 °F36 %30.19 in10.0 miNNW (340°)10.4 mphClear
3:53 PM46.9 °F21.9 °F37 %30.21 in10.0 miNorth (10°)8.1 mphClear
4:53 PM43.0 °F21.0 °F42 %30.24 in10.0 miNorth (10°)11.5 mphClear
5:53 PM39.0 °F19.9 °F46 %30.30 in10.0 miNorth (360°)11.5 mphClear
6:53 PM35.1 °F19.0 °F52 %30.33 in10.0 miNNE (20°)10.4 mphClear
7:53 PM32.0 °F19.0 °F59 %30.36 in10.0 miNorth (360°)10.4 mphClear
8:53 PM30.0 °F17.1 °F59 %30.38 in10.0 miNNE (20°)16.1 mph21.9 mphClear
9:53 PM28.0 °F15.1 °F58 %30.41 in10.0 miNNE (20°)15.0 mphClear
10:53 PM26.1 °F14.0 °F60 %30.41 in10.0 miNNE (20°)12.7 mphClear
11:53 PM24.1 °F14.0 °F65 %30.45 in10.0 miNorth (10°)11.5 mphClear
Hourly data recorded from KFOE, located miles away from Bradford, Kansas







STORIES FROM OUR PARTNERS